Location: Hastringsfeld
(50.9620°N, 10.4787°E)
Time: 03:32:28
(UTC+00:00)

Iridium 4 Rocket - Pass Details

Date: 26 September 2023
Orbit: 582 x 899 km, 86.9° (Epoch: 29 November)

Event Time Altitude Azimuth Distance (km) Brightness Sun altitude
Rises 01:54:13 0° 357° (N) 3,422 7.4 -29.3°
Reaches altitude 10° 01:56:45 10° 1° (N) 2,442 6.6 -29.0°
Maximum altitude 02:02:13 68° 84° (E) 841 3.7 -28.3°
Enters shadow 02:02:32 66° 108° (ESE) 848 3.7 -28.3°
